GW3788 Weather Reports


time (UTC)temp
C
wind
direction
speed
KPH
gust
KPH
rain 1hr
cm
rain 24hr
cm
rain mn
cm
humidity
%
barometer
mb
20260507094021 10 235 0.0 1.6 0.00 0.05 0.00 93 1020.8
20260507093921 10 264 0.0 0.0 0.00 0.05 0.00 93 1020.8
20260507093821 10 260 1.6 3.2 0.00 0.05 0.00 93 1020.8
20260507093721 10 210 3.2 3.2 0.00 0.05 0.00 93 1020.8
20260507093621 10 208 1.6 3.2 0.00 0.05 0.00 92 1020.8
20260507093521 10 208 1.6 3.2 0.00 0.05 0.00 92 1020.8
20260507093421 10 212 1.6 3.2 0.00 0.05 0.00 92 1020.8
20260507093121 10 235 1.6 3.2 0.00 0.05 0.00 93 1020.8
20260507093021 10 230 1.6 3.2 0.00 0.05 0.00 93 1020.8
20260507092921 10 229 1.6 3.2 0.00 0.05 0.00 93 1020.8
20260507092821 10 232 1.6 3.2 0.00 0.05 0.00 93 1020.8
20260507092721 10 224 1.6 3.2 0.00 0.05 0.00 93 1020.8
20260507092621 10 215 3.2 4.8 0.00 0.05 0.00 93 1020.8
20260507092521 10 226 3.2 3.2 0.00 0.05 0.00 93 1020.8
20260507092421 10 213 1.6 3.2 0.00 0.05 0.00 93 1020.8
20260507092322 10 216 4.8 4.8 0.00 0.05 0.00 93 1020.7
20260507092221 10 218 3.2 4.8 0.00 0.05 0.00 94 1020.7
20260507092122 10 217 1.6 1.6 0.00 0.05 0.00 94 1020.7
20260507091821 10 212 3.2 3.2 0.00 0.05 0.00 94 1020.7
20260507091522 10 218 1.6 3.2 0.00 0.05 0.00 94 1020.7
20260507091421 10 256 0.0 1.6 0.00 0.05 0.00 94 1020.7
20260507091321 10 226 1.6 3.2 0.00 0.05 0.00 94 1020.7
20260507091221 10 212 1.6 3.2 0.00 0.05 0.00 94 1020.8
20260507091121 10 197 3.2 3.2 0.00 0.05 0.00 94 1020.8
20260507091022 10 211 3.2 4.8 0.00 0.05 0.00 94 1020.8
20260507090922 10 215 3.2 4.8 0.00 0.05 0.00 94 1020.8
20260507090822 10 238 3.2 4.8 0.00 0.05 0.00 94 1020.8
20260507090722 10 233 3.2 6.4 0.00 0.05 0.00 94 1020.8
20260507090622 10 226 1.6 3.2 0.00 0.05 0.00 94 1020.8
20260507090521 10 234 1.6 3.2 0.00 0.05 0.00 94 1020.8
20260507090221 10 214 1.6 3.2 0.00 0.05 0.00 94 1020.8
20260507090122 10 215 1.6 3.2 0.00 0.05 0.00 94 1020.8
20260507090022 10 208 1.6 3.2 0.00 0.05 0.00 94 1020.8
20260507085922 10 220 1.6 4.8 0.00 0.05 0.00 94 1020.8
20260507085822 10 218 0.0 0.0 0.00 0.05 0.00 94 1020.8
20260507085722 10 224 1.6 3.2 0.00 0.05 0.00 94 1020.8
20260507085422 10 218 3.2 4.8 0.00 0.05 0.00 94 1020.8
20260507085322 10 205 1.6 3.2 0.00 0.05 0.00 94 1020.8
20260507085222 10 219 1.6 3.2 0.00 0.05 0.00 94 1020.7
20260507085122 10 221 3.2 4.8 0.00 0.05 0.00 95 1020.7
20260507085022 10 203 0.0 4.8 0.00 0.05 0.00 95 1020.7
20260507084922 10 0 0.0 0.0 0.00 0.05 0.00 94 1020.7
20260507084622 10 0 0.0 0.0 0.00 0.05 0.00 94 1020.7
20260507084522 10 225 0.0 1.6 0.00 0.05 0.00 95 1020.7
20260507084422 10 225 1.6 4.8 0.00 0.05 0.00 95 1020.7
20260507084322 10 232 1.6 4.8 0.00 0.05 0.00 95 1020.7
20260507084222 10 229 0.0 1.6 0.00 0.05 0.00 95 1020.7
20260507083822 10 240 0.0 1.6 0.00 0.05 0.00 95 1020.7
20260507083722 10 217 1.6 3.2 0.00 0.05 0.00 95 1020.7
20260507083622 10 207 1.6 3.2 0.00 0.05 0.00 95 1020.7
20260507083522 10 217 3.2 3.2 0.00 0.05 0.00 95 1020.7
20260507083422 10 214 1.6 4.8 0.00 0.05 0.00 95 1020.7
20260507083322 10 222 1.6 3.2 0.00 0.05 0.00 95 1020.7
20260507083222 10 232 0.0 1.6 0.00 0.05 0.00 95 1020.7
20260507083122 10 300 0.0 0.0 0.00 0.05 0.00 95 1020.7
20260507083022 10 299 3.2 4.8 0.00 0.05 0.00 95 1020.7
20260507082922 10 208 1.6 3.2 0.00 0.05 0.00 95 1020.7
20260507082822 10 212 3.2 4.8 0.00 0.05 0.00 95 1020.7
20260507082722 10 210 1.6 3.2 0.00 0.05 0.00 95 1020.7
20260507082622 10 217 1.6 3.2 0.00 0.05 0.00 95 1020.7
20260507082522 10 211 3.2 4.8 0.00 0.05 0.00 95 1020.7
20260507082422 10 214 3.2 6.4 0.00 0.05 0.00 95 1020.7
20260507082322 10 213 4.8 6.4 0.00 0.05 0.00 95 1020.7
20260507082222 10 209 3.2 6.4 0.00 0.05 0.00 95 1020.7
20260507082122 10 210 1.6 4.8 0.00 0.05 0.00 95 1020.7
20260507082022 10 283 0.0 1.6 0.00 0.05 0.00 95 1020.7
20260507081922 10 204 1.6 4.8 0.00 0.05 0.00 95 1020.7
20260507081822 10 210 3.2 4.8 0.00 0.05 0.00 95 1020.7
20260507081723 10 272 1.6 3.2 0.00 0.05 0.00 95 1020.7
20260507081423 10 276 0.0 1.6 0.00 0.05 0.00 95 1020.7
20260507081322 11 222 4.8 8.0 0.00 0.05 0.00 96 1020.7
20260507081223 11 207 1.6 6.4 0.00 0.05 0.00 96 1020.7
20260507081123 11 242 0.0 1.6 0.00 0.05 0.00 96 1020.7
20260507081023 11 225 3.2 4.8 0.00 0.05 0.00 96 1020.7
20260507080923 11 218 3.2 3.2 0.00 0.05 0.00 96 1020.6
20260507080823 11 236 0.0 1.6 0.00 0.05 0.00 96 1020.6
20260507080723 11 270 0.0 1.6 0.00 0.05 0.00 96 1020.6
20260507080623 10 248 3.2 6.4 0.00 0.05 0.00 97 1020.6
20260507080523 10 218 3.2 3.2 0.00 0.05 0.00 97 1020.7
20260507080223 10 221 1.6 3.2 0.00 0.05 0.00 97 1020.7
20260507080123 10 212 1.6 3.2 0.00 0.05 0.00 97 1020.7
20260507080023 10 214 3.2 4.8 0.00 0.05 0.00 97 1020.7
20260507075923 10 208 3.2 4.8 0.00 0.05 0.00 97 1020.7
20260507075823 10 205 0.0 3.2 0.00 0.05 0.00 98 1020.7
20260507075123 10 0 0.0 0.0 0.00 0.05 0.00 98 1020.8
20260507075023 10 241 0.0 1.6 0.00 0.05 0.00 98 1020.8
20260507074923 10 241 1.6 3.2 0.00 0.05 0.00 98 1020.8
20260507074823 10 207 0.0 3.2 0.00 0.05 0.00 98 1020.8
20260507074723 10 244 0.0 1.6 0.00 0.05 0.00 98 1020.8
20260507074623 10 223 0.0 1.6 0.00 0.05 0.00 98 1020.8
20260507074523 10 260 0.0 0.0 0.00 0.05 0.00 98 1020.7
20260507074423 10 216 1.6 3.2 0.00 0.05 0.00 98 1020.7
20260507074123 10 233 1.6 4.8 0.00 0.05 0.00 98 1020.7
20260507074023 10 219 1.6 3.2 0.00 0.05 0.00 98 1020.7
20260507073923 10 204 3.2 4.8 0.00 0.05 0.00 98 1020.7
20260507073823 10 210 3.2 4.8 0.00 0.05 0.00 98 1020.7
20260507073723 10 210 1.6 4.8 0.00 0.05 0.00 98 1020.7
20260507073623 10 208 3.2 3.2 0.00 0.05 0.00 98 1020.7
20260507073523 10 226 0.0 1.6 0.00 0.05 0.00 98 1020.7
20260507073223 10 219 1.6 3.2 0.00 0.05 0.00 98 1020.7
20260507073123 10 210 3.2 4.8 0.00 0.05 0.00 98 1020.7
20260507072823 10 228 1.6 4.8 0.00 0.05 0.00 98 1020.7
20260507072723 10 218 1.6 3.2 0.00 0.05 0.00 98 1020.7
20260507072623 10 237 1.6 3.2 0.00 0.05 0.00 98 1020.7
20260507072524 10 226 1.6 3.2 0.00 0.05 0.00 98 1020.7
20260507072423 10 202 1.6 3.2 0.00 0.05 0.00 98 1020.7
20260507072323 10 223 0.0 1.6 0.00 0.05 0.00 98 1020.7
20260507072223 10 0 0.0 0.0 0.00 0.05 0.00 98 1020.7
20260507072123 10 0 0.0 0.0 0.00 0.05 0.00 98 1020.7
20260507072023 10 0 0.0 0.0 0.00 0.05 0.00 98 1020.7
20260507071524 11 0 0.0 0.0 0.00 0.05 0.00 98 1020.6
20260507071224 11 235 0.0 3.2 0.00 0.05 0.00 98 1020.6
20260507071124 11 0 0.0 0.0 0.00 0.05 0.00 98 1020.6
20260507071023 11 221 0.0 1.6 0.00 0.05 0.00 98 1020.6
20260507070924 11 227 1.6 3.2 0.00 0.05 0.00 98 1020.6
20260507070824 11 209 1.6 3.2 0.00 0.05 0.00 98 1020.6
20260507070724 11 262 1.6 3.2 0.00 0.05 0.00 97 1020.6
20260507070624 11 289 0.0 1.6 0.00 0.05 0.00 97 1020.6
20260507070524 11 0 0.0 0.0 0.00 0.05 0.00 97 1020.6
20260507070424 11 238 0.0 3.2 0.00 0.05 0.00 97 1020.6
20260507070324 11 224 0.0 1.6 0.00 0.05 0.00 97 1020.6
20260507070224 11 222 1.6 3.2 0.00 0.05 0.00 97 1020.6
20260507070124 11 229 1.6 3.2 0.00 0.05 0.00 97 1020.6
20260507070024 11 218 0.0 1.6 0.00 0.05 0.00 97 1020.7
20260507070000 11 0 0.0 1.6 0.00 0.05 0.00 97 1020.7
20260507065924 11 221 0.0 1.6 0.00 0.05 0.05 97 1020.7
20260507065824 11 235 0.0 1.6 0.00 0.05 0.05 97 1020.7
20260507065724 11 270 0.0 1.6 0.00 0.05 0.05 97 1020.7
20260507065624 11 267 0.0 1.6 0.00 0.05 0.05 97 1020.7
20260507065524 11 276 0.0 1.6 0.00 0.05 0.05 97 1020.7
20260507065424 11 249 1.6 3.2 0.00 0.05 0.05 97 1020.7
20260507065324 11 237 0.0 1.6 0.00 0.05 0.05 97 1020.6
20260507065024 11 210 1.6 3.2 0.00 0.05 0.05 97 1020.6
20260507064924 11 218 0.0 1.6 0.00 0.05 0.05 97 1020.6
20260507064824 11 224 0.0 0.0 0.00 0.05 0.05 97 1020.6
20260507064724 11 224 0.0 1.6 0.00 0.05 0.05 97 1020.6
20260507064624 11 219 0.0 1.6 0.00 0.05 0.05 97 1020.6
20260507064524 11 214 0.0 1.6 0.00 0.05 0.05 97 1020.6
20260507064424 11 218 1.6 3.2 0.00 0.05 0.05 97 1020.6
20260507064124 11 234 0.0 1.6 0.00 0.05 0.05 96 1020.6
20260507064024 11 275 0.0 1.6 0.00 0.05 0.05 96 1020.6
20260507063924 11 276 0.0 1.6 0.00 0.05 0.05 96 1020.6
20260507063824 11 300 0.0 1.6 0.00 0.05 0.05 96 1020.6
20260507063724 11 0 0.0 0.0 0.00 0.05 0.05 96 1020.6
20260507063424 11 0 0.0 0.0 0.00 0.05 0.05 96 1020.6
20260507063324 11 0 0.0 0.0 0.00 0.05 0.05 96 1020.6
20260507063224 11 347 0.0 0.0 0.00 0.05 0.05 96 1020.6
20260507063124 11 347 0.0 1.6 0.00 0.05 0.05 95 1020.6
20260507063024 11 0 0.0 0.0 0.00 0.05 0.05 95 1020.6
20260507062925 11 0 0.0 0.0 0.00 0.05 0.05 95 1020.7
20260507062824 11 255 0.0 3.2 0.00 0.05 0.05 95 1020.7
20260507062724 11 237 0.0 1.6 0.00 0.05 0.05 95 1020.7
20260507062625 11 0 0.0 0.0 0.00 0.05 0.05 95 1020.7
20260507062524 11 0 0.0 0.0 0.00 0.05 0.05 95 1020.7
20260507062424 11 240 0.0 1.6 0.00 0.05 0.05 95 1020.7
20260507062324 11 279 0.0 1.6 0.00 0.05 0.05 95 1020.8
20260507062224 11 286 0.0 1.6 0.00 0.05 0.05 94 1020.8
20260507061925 11 296 0.0 1.6 0.00 0.05 0.05 93 1020.8
20260507061824 11 300 0.0 3.2 0.00 0.05 0.05 93 1020.8
20260507061724 11 284 0.0 3.2 0.00 0.05 0.05 93 1020.8
20260507061625 11 291 0.0 3.2 0.00 0.05 0.05 92 1020.8
20260507061525 11 320 0.0 1.6 0.00 0.05 0.05 92 1020.8
20260507061224 11 349 0.0 3.2 0.00 0.05 0.05 92 1020.7
20260507061125 11 325 0.0 1.6 0.00 0.05 0.05 92 1020.7
20260507061025 11 0 0.0 0.0 0.00 0.05 0.05 92 1020.7
20260507060925 11 0 0.0 0.0 0.00 0.05 0.05 92 1020.7
20260507060825 11 328 0.0 3.2 0.00 0.05 0.05 91 1020.7
20260507060725 12 340 1.6 3.2 0.00 0.05 0.05 91 1020.7
20260507060425 12 310 0.0 3.2 0.00 0.05 0.05 92 1020.7
20260507060325 12 333 0.0 1.6 0.00 0.05 0.05 92 1020.7
20260507060225 12 8 0.0 1.6 0.00 0.05 0.05 92 1020.7
20260507060125 12 11 1.6 4.8 0.00 0.05 0.05 91 1020.7
20260507060025 12 22 0.0 3.2 0.00 0.05 0.05 91 1020.7
20260507055925 12 0 0.0 0.0 0.00 0.05 0.05 91 1020.7
20260507055425 12 0 0.0 0.0 0.00 0.05 0.05 89 1020.7
20260507055125 12 0 0.0 0.0 0.00 0.05 0.05 88 1020.7
20260507055025 12 0 0.0 0.0 0.00 0.05 0.05 88 1020.7
20260507054925 12 0 0.0 0.0 0.00 0.05 0.05 88 1020.7
20260507054825 12 337 0.0 1.6 0.00 0.05 0.05 87 1020.7
20260507054525 12 329 0.0 1.6 0.00 0.05 0.05 87 1020.8
20260507054425 12 0 0.0 0.0 0.00 0.05 0.05 87 1020.8
20260507054325 12 0 0.0 0.0 0.00 0.05 0.05 87 1020.8
20260507054225 12 0 0.0 0.0 0.00 0.05 0.05 87 1020.7
20260507054125 12 274 0.0 1.6 0.00 0.05 0.05 87 1020.7
20260507054027 12 0 0.0 0.0 0.00 0.05 0.05 87 1020.7
20260507053725 12 0 0.0 0.0 0.00 0.05 0.05 87 1020.7
20260507053625 12 0 0.0 0.0 0.00 0.05 0.05 87 1020.7
20260507053426 12 314 0.0 1.6 0.00 0.05 0.05 87 1020.7
20260507053325 12 0 0.0 0.0 0.00 0.05 0.05 87 1020.7
20260507053225 12 342 1.6 3.2 0.00 0.05 0.05 88 1020.7
20260507053125 12 330 0.0 3.2 0.00 0.05 0.05 89 1020.7
20260507053026 12 0 0.0 0.0 0.00 0.05 0.05 89 1020.7
20260507052925 12 0 0.0 0.0 0.00 0.05 0.05 89 1020.7
20260507052626 12 327 0.0 0.0 0.00 0.05 0.05 86 1020.7
20260507052526 12 219 0.0 1.6 0.00 0.05 0.05 86 1020.7
20260507052425 12 251 0.0 1.6 0.00 0.05 0.05 86 1020.7
20260507052325 12 244 0.0 1.6 0.00 0.05 0.05 86 1020.7
20260507052225 12 220 1.6 3.2 0.00 0.05 0.05 86 1020.7
20260507052126 12 215 1.6 3.2 0.00 0.05 0.05 87 1020.7
20260507052025 12 208 0.0 1.6 0.00 0.05 0.05 87 1020.6
20260507051926 12 299 0.0 0.0 0.00 0.05 0.05 88 1020.7
20260507051825 12 0 0.0 0.0 0.00 0.05 0.05 88 1020.7
20260507051725 12 0 0.0 0.0 0.00 0.05 0.05 88 1020.7
20260507051625 12 0 0.0 0.0 0.00 0.05 0.05 88 1020.7
20260507051525 12 0 0.0 0.0 0.00 0.05 0.05 87 1020.7
20260507051426 12 0 0.0 0.0 0.00 0.05 0.05 87 1020.7
20260507051326 12 0 0.0 0.0 0.00 0.05 0.05 88 1020.7
20260507051226 12 0 0.0 0.0 0.00 0.05 0.05 89 1020.7
20260507051125 12 0 0.0 0.0 0.00 0.05 0.05 89 1020.7
20260507051026 12 2 0.0 3.2 0.00 0.05 0.05 88 1020.7
20260507050726 12 0 0.0 0.0 0.00 0.05 0.05 86 1020.7
20260507050626 12 0 0.0 0.0 0.00 0.05 0.05 87 1020.7
20260507050526 12 248 0.0 0.0 0.00 0.05 0.05 87 1020.7
20260507050426 12 247 1.6 3.2 0.00 0.05 0.05 87 1020.7
20260507050326 12 230 1.6 3.2 0.00 0.05 0.05 87 1020.7
20260507050026 12 0 0.0 0.0 0.00 0.05 0.05 90 1020.7
20260507045728 12 0 0.0 0.0 0.00 0.05 0.05 89 1020.7
20260507045626 12 0 0.0 0.0 0.00 0.05 0.05 89 1020.6
20260507045326 12 278 0.0 0.0 0.00 0.05 0.05 90 1020.7
20260507045226 12 0 0.0 0.0 0.00 0.05 0.05 90 1020.7
20260507045126 12 0 0.0 0.0 0.00 0.05 0.05 91 1020.7
20260507044826 12 346 0.0 1.6 0.00 0.05 0.05 90 1020.7
20260507044526 12 0 0.0 0.0 0.00 0.05 0.05 91 1020.7
20260507044426 12 0 0.0 0.0 0.00 0.05 0.05 90 1020.7
20260507044326 12 0 0.0 0.0 0.00 0.05 0.05 90 1020.7
20260507044226 12 0 0.0 0.0 0.00 0.05 0.05 90 1020.7
20260507044126 12 0 0.0 0.0 0.00 0.05 0.05 90 1020.7
20260507044026 12 0 0.0 0.0 0.00 0.05 0.05 89 1020.7
20260507043926 12 0 0.0 0.0 0.00 0.05 0.05 89 1020.7
20260507043626 12 253 1.6 3.2 0.00 0.05 0.05 88 1020.6
20260507043526 12 230 0.0 3.2 0.00 0.05 0.05 90 1020.6
20260507043427 12 0 0.0 0.0 0.00 0.05 0.05 90 1020.6
20260507043127 12 0 0.0 0.0 0.00 0.05 0.05 90 1020.6
20260507043026 12 0 0.0 0.0 0.00 0.05 0.05 90 1020.6
20260507042926 12 0 0.0 0.0 0.00 0.05 0.05 90 1020.6
20260507042626 12 0 0.0 0.0 0.00 0.05 0.05 90 1020.6
20260507042527 12 0 0.0 0.0 0.00 0.05 0.05 90 1020.7
20260507042427 12 359 0.0 1.6 0.00 0.05 0.05 90 1020.7
20260507042327 12 0 0.0 0.0 0.00 0.05 0.05 90 1020.7
20260507042227 12 0 0.0 0.0 0.00 0.05 0.05 90 1020.7
20260507042127 12 0 0.0 0.0 0.00 0.05 0.05 90 1020.7
20260507042027 12 0 0.0 0.0 0.00 0.05 0.05 90 1020.7
20260507041927 12 0 0.0 0.0 0.00 0.05 0.05 90 1020.7
20260507041427 12 0 0.0 0.0 0.00 0.05 0.05 89 1020.7
20260507041326 12 0 0.0 0.0 0.00 0.05 0.05 89 1020.7
20260507041227 12 0 0.0 0.0 0.00 0.05 0.05 89 1020.7
20260507041127 12 0 0.0 0.0 0.00 0.05 0.05 89 1020.7
20260507041027 12 0 0.0 0.0 0.00 0.05 0.05 89 1020.7
20260507040527 12 0 0.0 0.0 0.00 0.05 0.05 89 1020.7
20260507040427 12 0 0.0 0.0 0.00 0.05 0.05 89 1020.7
20260507040327 12 0 0.0 0.0 0.00 0.05 0.05 88 1020.7
20260507040227 12 0 0.0 0.0 0.00 0.05 0.05 88 1020.6
20260507040127 12 0 0.0 0.0 0.00 0.05 0.05 88 1020.6
20260507040027 12 0 0.0 0.0 0.00 0.05 0.05 88 1020.6
20260507035927 12 285 0.0 1.6 0.00 0.05 0.05 89 1020.6
20260507035827 12 0 0.0 0.0 0.00 0.05 0.05 89 1020.6
20260507035327 12 0 0.0 0.0 0.00 0.05 0.05 88 1020.5
20260507035227 12 0 0.0 0.0 0.00 0.05 0.05 88 1020.5
20260507035127 12 0 0.0 0.0 0.00 0.05 0.05 88 1020.5
20260507035027 12 0 0.0 0.0 0.00 0.05 0.05 88 1020.5
20260507034927 12 283 0.0 1.6 0.00 0.05 0.05 88 1020.5
20260507034827 12 0 0.0 0.0 0.00 0.05 0.05 88 1020.5
20260507034727 12 0 0.0 0.0 0.00 0.05 0.05 89 1020.5
20260507034627 12 0 0.0 0.0 0.00 0.05 0.05 89 1020.5
20260507034527 12 0 0.0 0.0 0.00 0.05 0.05 89 1020.4
20260507034427 12 0 0.0 0.0 0.00 0.05 0.05 89 1020.4
20260507034327 12 0 0.0 0.0 0.00 0.05 0.05 89 1020.4
20260507034227 12 0 0.0 0.0 0.00 0.05 0.05 89 1020.4
20260507034127 12 0 0.0 0.0 0.00 0.05 0.05 89 1020.4
20260507034027 12 0 0.0 0.0 0.00 0.05 0.05 88 1020.4
20260507033327 12 0 0.0 0.0 0.00 0.05 0.05 88 1020.3
20260507033227 12 0 0.0 0.0 0.00 0.05 0.05 88 1020.3
20260507033128 12 0 0.0 0.0 0.00 0.05 0.05 88 1020.3
20260507033027 12 0 0.0 0.0 0.00 0.05 0.05 88 1020.3
20260507032927 12 0 0.0 0.0 0.00 0.05 0.05 88 1020.3
20260507032828 12 0 0.0 0.0 0.00 0.05 0.05 88 1020.3
20260507032728 12 0 0.0 0.0 0.00 0.05 0.05 87 1020.3
20260507032627 12 0 0.0 0.0 0.00 0.05 0.05 87 1020.3
20260507032527 12 0 0.0 0.0 0.00 0.05 0.05 88 1020.3
20260507032228 12 0 0.0 0.0 0.00 0.05 0.05 87 1020.3
20260507032127 12 0 0.0 0.0 0.00 0.05 0.05 87 1020.2
20260507032027 12 0 0.0 0.0 0.00 0.05 0.05 87 1020.2
20260507031928 12 0 0.0 0.0 0.00 0.05 0.05 87 1020.2
20260507031828 12 0 0.0 0.0 0.00 0.05 0.05 87 1020.2
20260507031528 12 0 0.0 0.0 0.00 0.05 0.05 87 1020.2
20260507031428 12 0 0.0 0.0 0.00 0.05 0.05 87 1020.2
20260507031328 12 0 0.0 0.0 0.00 0.05 0.05 87 1020.1
20260507031228 12 0 0.0 0.0 0.00 0.05 0.05 87 1020.1
20260507031128 12 0 0.0 0.0 0.00 0.05 0.05 87 1020.1
20260507031028 12 0 0.0 0.0 0.00 0.05 0.05 87 1020.1
20260507030928 12 0 0.0 0.0 0.00 0.05 0.05 87 1020.1
20260507030828 12 0 0.0 0.0 0.00 0.05 0.05 87 1020.1
20260507030728 12 0 0.0 0.0 0.00 0.05 0.05 86 1020.1
20260507030628 12 0 0.0 0.0 0.00 0.05 0.05 86 1020.1
20260507030128 12 0 0.0 0.0 0.00 0.05 0.05 87 1020.1
20260507030028 12 0 0.0 0.0 0.00 0.05 0.05 86 1020.1
20260507025728 12 0 0.0 0.0 0.00 0.05 0.05 86 1020.1
20260507025628 12 0 0.0 0.0 0.00 0.05 0.05 86 1020.1
20260507025328 12 0 0.0 0.0 0.00 0.05 0.05 86 1020.1
20260507025028 12 0 0.0 0.0 0.00 0.05 0.05 86 1020.1
20260507024928 12 0 0.0 0.0 0.00 0.05 0.05 86 1020.1
20260507024828 12 0 0.0 0.0 0.00 0.05 0.05 85 1020.1
20260507024528 12 0 0.0 0.0 0.00 0.05 0.05 85 1020.1
20260507024428 12 0 0.0 0.0 0.00 0.05 0.05 85 1020.1
20260507023929 12 0 0.0 0.0 0.00 0.05 0.05 85 1020.0
20260507023828 12 0 0.0 0.0 0.00 0.05 0.05 86 1020.0
20260507023728 12 0 0.0 0.0 0.00 0.05 0.05 86 1020.0
20260507023629 12 0 0.0 0.0 0.00 0.05 0.05 86 1020.0
20260507023528 12 0 0.0 0.0 0.00 0.05 0.05 86 1020.0
20260507023428 12 0 0.0 0.0 0.00 0.05 0.05 85 1020.0
20260507023328 12 0 0.0 0.0 0.00 0.05 0.05 85 1020.0
20260507023228 12 0 0.0 0.0 0.00 0.05 0.05 85 1020.0
20260507022928 12 0 0.0 0.0 0.00 0.05 0.05 86 1020.0
20260507022829 12 0 0.0 0.0 0.00 0.05 0.05 85 1020.0
20260507022728 12 0 0.0 0.0 0.00 0.05 0.05 86 1020.0
20260507022629 12 0 0.0 0.0 0.00 0.05 0.05 85 1020.0
20260507022328 12 0 0.0 0.0 0.00 0.05 0.05 85 1020.0
20260507022229 12 0 0.0 1.6 0.00 0.05 0.05 85 1020.0
20260507022129 12 0 0.0 0.0 0.00 0.05 0.05 85 1020.0
20260507022029 12 0 0.0 0.0 0.00 0.05 0.05 85 1020.0
20260507021929 12 0 0.0 0.0 0.00 0.05 0.05 86 1020.0
20260507021829 12 0 0.0 0.0 0.00 0.05 0.05 85 1020.0
20260507021729 12 0 0.0 0.0 0.00 0.05 0.05 85 1020.0
20260507021629 12 0 0.0 0.0 0.00 0.05 0.05 86 1020.0
20260507021529 12 0 0.0 0.0 0.00 0.05 0.05 85 1020.0
20260507021428 12 0 0.0 0.0 0.00 0.05 0.05 85 1020.0
20260507021329 12 0 0.0 0.0 0.00 0.05 0.05 85 1020.0
20260507021229 12 0 0.0 0.0 0.00 0.05 0.05 85 1020.1
20260507021129 12 0 0.0 0.0 0.00 0.05 0.05 84 1020.0
20260507021029 12 0 0.0 0.0 0.00 0.05 0.05 84 1020.0
20260507020929 12 0 0.0 0.0 0.00 0.05 0.05 84 1020.0
20260507020829 12 0 0.0 0.0 0.00 0.05 0.05 84 1020.1
20260507020729 12 0 0.0 0.0 0.00 0.05 0.05 84 1020.1
20260507020629 12 0 0.0 0.0 0.00 0.05 0.05 85 1020.1
20260507020529 12 0 0.0 0.0 0.00 0.05 0.05 85 1020.1
20260507020029 12 0 0.0 0.0 0.00 0.05 0.05 84 1020.1
20260507015929 12 0 0.0 0.0 0.00 0.05 0.05 84 1020.1
20260507015829 12 0 0.0 0.0 0.00 0.05 0.05 84 1020.1
20260507015729 12 0 0.0 0.0 0.00 0.05 0.05 84 1020.1
20260507015430 12 0 0.0 0.0 0.00 0.05 0.05 84 1020.1
20260507015129 12 0 0.0 0.0 0.00 0.05 0.05 84 1020.1
20260507015029 12 0 0.0 0.0 0.00 0.05 0.05 83 1020.1
20260507014929 12 0 0.0 0.0 0.00 0.05 0.05 84 1020.1
20260507014829 12 0 0.0 0.0 0.00 0.05 0.05 84 1020.0
20260507014729 13 0 0.0 0.0 0.00 0.05 0.05 84 1020.0
20260507014429 13 0 0.0 0.0 0.00 0.05 0.05 83 1020.0
20260507013929 13 0 0.0 0.0 0.00 0.05 0.05 84 1020.0
20260507013829 13 0 0.0 0.0 0.00 0.05 0.05 83 1020.0
20260507013729 13 0 0.0 0.0 0.00 0.05 0.05 83 1020.0
20260507013629 13 0 0.0 0.0 0.00 0.05 0.05 83 1020.0
20260507013329 13 0 0.0 0.0 0.00 0.05 0.05 83 1020.0
20260507013230 13 0 0.0 0.0 0.00 0.05 0.05 83 1020.0
20260507013130 13 0 0.0 0.0 0.00 0.05 0.05 83 1020.0
20260507013029 13 341 0.0 1.6 0.00 0.05 0.05 83 1020.0
20260507012730 13 0 0.0 0.0 0.00 0.05 0.05 83 1020.0
20260507012630 13 0 0.0 0.0 0.00 0.05 0.05 83 1020.0
20260507012529 13 0 0.0 3.2 0.00 0.05 0.05 82 1020.0
20260507012430 13 0 0.0 0.0 0.00 0.05 0.05 82 1019.9
20260507012330 13 0 0.0 0.0 0.00 0.05 0.05 82 1020.0
20260507011830 13 290 0.0 3.2 0.00 0.05 0.05 83 1020.0
20260507011530 13 171 0.0 3.2 0.00 0.05 0.05 82 1020.0
20260507011430 13 0 0.0 0.0 0.00 0.05 0.05 82 1020.0
20260507011330 13 0 0.0 0.0 0.00 0.05 0.05 82 1020.0
20260507011230 13 0 0.0 0.0 0.00 0.05 0.05 82 1020.0
20260507011130 13 113 0.0 1.6 0.00 0.05 0.05 82 1020.0
20260507011030 13 0 0.0 0.0 0.00 0.05 0.05 82 1020.0
20260507010830 13 0 0.0 0.0 0.00 0.05 0.05 83 1020.0
20260507010730 13 62 0.0 0.0 0.00 0.05 0.05 84 1020.0
20260507010630 13 78 0.0 3.2 0.00 0.05 0.05 84 1020.0
20260507010330 13 331 0.0 1.6 0.00 0.05 0.05 83 1020.1
20260507010230 13 0 0.0 0.0 0.00 0.05 0.05 83 1020.1
20260507010130 13 0 0.0 0.0 0.00 0.05 0.05 83 1020.1
20260507010030 13 0 0.0 0.0 0.00 0.05 0.05 82 1020.1
20260507005930 13 0 0.0 0.0 0.00 0.05 0.05 83 1020.1
20260507005830 13 0 0.0 0.0 0.00 0.05 0.05 83 1020.1
20260507005730 13 0 0.0 0.0 0.00 0.05 0.05 83 1020.1
20260507005630 13 0 0.0 0.0 0.00 0.05 0.05 83 1020.1
20260507005530 13 0 0.0 0.0 0.00 0.05 0.05 83 1020.1
20260507005430 13 111 1.6 4.8 0.00 0.05 0.05 82 1020.1
20260507005330 13 118 3.2 4.8 0.00 0.05 0.05 82 1020.1
20260507005230 13 0 0.0 0.0 0.00 0.05 0.05 83 1020.1
20260507005131 13 0 0.0 0.0 0.00 0.05 0.05 83 1020.1
20260507004830 13 0 0.0 0.0 0.00 0.05 0.05 83 1020.1
20260507004730 13 0 0.0 0.0 0.00 0.05 0.05 82 1020.1
20260507004630 13 0 0.0 0.0 0.00 0.05 0.05 83 1020.1
20260507004530 13 0 0.0 0.0 0.00 0.05 0.05 82 1020.1
20260507004430 13 0 0.0 0.0 0.00 0.05 0.05 82 1020.1
20260507004330 13 60 0.0 0.0 0.00 0.05 0.05 83 1020.2
20260507004230 13 105 0.0 1.6 0.00 0.05 0.05 82 1020.2
20260507004131 13 150 0.0 1.6 0.00 0.05 0.05 82 1020.2
20260507003830 13 0 0.0 0.0 0.00 0.05 0.05 82 1020.2
20260507003530 13 0 0.0 0.0 0.00 0.05 0.05 82 1020.2
20260507003430 13 242 0.0 1.6 0.00 0.05 0.05 82 1020.2
20260507003331 13 0 0.0 0.0 0.00 0.05 0.05 82 1020.2
20260507003230 13 0 0.0 0.0 0.00 0.05 0.05 82 1020.2
20260507003131 13 0 0.0 0.0 0.00 0.05 0.05 83 1020.2
20260507003040 13 0 0.0 0.0 0.00 0.05 0.05 82 1020.2
20260507002931 13 0 0.0 0.0 0.00 0.05 0.05 82 1020.2
20260507002831 13 0 0.0 0.0 0.00 0.05 0.05 82 1020.2
20260507002531 13 0 0.0 0.0 0.00 0.05 0.05 82 1020.3
20260507002431 13 213 1.6 3.2 0.00 0.05 0.05 82 1020.3
20260507002330 13 0 0.0 0.0 0.00 0.05 0.05 82 1020.3
20260507001831 13 0 0.0 0.0 0.00 0.05 0.05 83 1020.3
20260507001731 13 250 0.0 1.6 0.00 0.05 0.05 83 1020.3
20260507001631 13 0 0.0 0.0 0.00 0.05 0.05 83 1020.2
20260507001531 13 0 0.0 0.0 0.00 0.05 0.05 83 1020.2
20260507001431 13 0 0.0 0.0 0.00 0.05 0.05 83 1020.2
20260507001331 13 0 0.0 0.0 0.00 0.05 0.05 83 1020.2
20260507001231 13 0 0.0 0.0 0.00 0.05 0.05 82 1020.2
20260507001131 13 191 0.0 3.2 0.00 0.05 0.05 82 1020.2
20260507001031 13 0 0.0 0.0 0.00 0.05 0.05 82 1020.2
20260507000931 13 259 0.0 0.0 0.00 0.05 0.05 82 1020.2
20260507000631 13 0 0.0 0.0 0.00 0.05 0.05 82 1020.2
20260507000531 13 0 0.0 0.0 0.00 0.05 0.05 82 1020.2
20260507000431 13 0 0.0 0.0 0.00 0.05 0.05 82 1020.2
20260507000331 13 0 0.0 0.0 0.00 0.05 0.05 82 1020.2
20260507000031 13 261 0.0 0.0 0.00 0.05 0.05 82 1020.2
20260506235931 13 317 0.0 3.2 0.00 0.05 0.05 82 1020.2
20260506235631 13 0 0.0 0.0 0.00 0.05 0.05 81 1020.2
20260506235531 13 0 0.0 0.0 0.00 0.05 0.05 81 1020.3
20260506235431 13 294 0.0 1.6 0.00 0.05 0.05 82 1020.3
20260506235331 13 0 0.0 0.0 0.00 0.05 0.05 82 1020.3
20260506235231 13 0 0.0 0.0 0.00 0.05 0.05 81 1020.3
20260506235131 13 246 0.0 0.0 0.00 0.05 0.05 81 1020.3
20260506235031 13 245 1.6 3.2 0.00 0.05 0.05 81 1020.3
20260506234931 13 359 0.0 1.6 0.00 0.05 0.05 81 1020.3
20260506234831 13 322 0.0 3.2 0.00 0.05 0.05 82 1020.3
20260506234731 13 329 0.0 1.6 0.00 0.05 0.05 82 1020.3
20260506234631 13 312 0.0 1.6 0.00 0.05 0.05 82 1020.3
20260506234531 13 328 0.0 3.2 0.00 0.05 0.05 82 1020.3
20260506234232 13 326 1.6 3.2 0.00 0.05 0.05 81 1020.3
20260506234131 13 0 0.0 0.0 0.00 0.05 0.05 81 1020.3
20260506233831 13 356 0.0 1.6 0.00 0.05 0.05 82 1020.3
20260506233732 13 0 0.0 0.0 0.00 0.05 0.05 81 1020.3
20260506233631 13 0 0.0 0.0 0.00 0.05 0.05 81 1020.3
20260506233532 13 298 0.0 3.2 0.00 0.05 0.05 81 1020.3
20260506233432 13 309 0.0 0.0 0.00 0.05 0.05 81 1020.3
20260506233331 13 0 0.0 0.0 0.00 0.05 0.05 81 1020.3
20260506233231 13 0 0.0 0.0 0.00 0.05 0.05 81 1020.3
20260506233131 13 0 0.0 0.0 0.00 0.05 0.05 81 1020.3
20260506233031 13 318 0.0 3.2 0.00 0.05 0.05 81 1020.3
20260506232931 13 334 1.6 3.2 0.00 0.05 0.05 81 1020.3
20260506232832 13 342 1.6 3.2 0.00 0.05 0.05 82 1020.3
20260506232531 13 0 0.0 0.0 0.00 0.05 0.05 81 1020.3
20260506232432 13 300 0.0 3.2 0.00 0.05 0.05 81 1020.3
20260506232332 13 264 0.0 0.0 0.00 0.05 0.05 81 1020.3
20260506232232 13 298 0.0 3.2 0.03 0.05 0.05 82 1020.3
20260506232132 13 302 0.0 1.6 0.03 0.05 0.05 82 1020.3
20260506231832 13 328 0.0 4.8 0.05 0.05 0.05 82 1020.3
20260506231732 13 0 0.0 0.0 0.05 0.05 0.05 82 1020.3
20260506231632 13 296 0.0 1.6 0.05 0.05 0.05 83 1020.3
20260506231532 12 0 0.0 0.0 0.05 0.05 0.05 83 1020.3
20260506231432 12 358 0.0 1.6 0.05 0.05 0.05 83 1020.3
20260506231332 12 0 0.0 0.0 0.05 0.05 0.05 82 1020.3
20260506231232 12 0 0.0 0.0 0.05 0.05 0.05 82 1020.3
20260506231132 12 0 0.0 0.0 0.05 0.05 0.05 83 1020.3
20260506231032 12 0 0.0 0.0 0.05 0.05 0.05 82 1020.3
20260506230532 12 253 0.0 1.6 0.05 0.05 0.05 82 1020.3
20260506230432 12 248 0.0 1.6 0.05 0.05 0.05 82 1020.3
20260506230332 12 243 0.0 3.2 0.05 0.05 0.05 82 1020.3
20260506230232 12 238 3.2 4.8 0.05 0.05 0.05 81 1020.3
20260506230132 13 232 1.6 3.2 0.05 0.05 0.05 81 1020.3
20260506225632 13 261 0.0 0.0 0.05 0.05 0.05 81 1020.3
20260506225532 13 300 0.0 1.6 0.05 0.05 0.05 81 1020.3
20260506225432 12 247 0.0 0.0 0.05 0.05 0.05 82 1020.3
20260506225332 12 0 0.0 0.0 0.05 0.05 0.05 82 1020.3
20260506225232 12 271 0.0 1.6 0.05 0.05 0.05 82 1020.3
20260506225132 12 279 0.0 1.6 0.05 0.05 0.05 82 1020.3
20260506224832 12 298 0.0 1.6 0.05 0.05 0.05 82 1020.3
20260506224732 12 276 0.0 0.0 0.05 0.05 0.05 82 1020.3
20260506224632 12 283 1.6 4.8 0.05 0.05 0.05 82 1020.3
20260506224532 12 282 0.0 6.4 0.05 0.05 0.05 82 1020.3
20260506224432 12 0 0.0 0.0 0.05 0.05 0.05 82 1020.3
20260506224332 12 351 0.0 3.2 0.05 0.05 0.05 82 1020.4
20260506224233 12 330 1.6 3.2 0.05 0.05 0.05 82 1020.4
20260506224132 12 288 3.2 6.4 0.05 0.05 0.05 82 1020.4
20260506224033 12 247 3.2 6.4 0.05 0.05 0.05 82 1020.4
20260506223933 12 268 1.6 4.8 0.05 0.05 0.05 82 1020.4
20260506223832 12 245 1.6 3.2 0.05 0.05 0.05 82 1020.4
20260506223732 12 237 3.2 4.8 0.05 0.05 0.05 82 1020.4
20260506223632 12 241 3.2 4.8 0.05 0.05 0.05 82 1020.4
20260506223532 12 216 4.8 6.4 0.05 0.05 0.05 82 1020.4
20260506223432 12 233 3.2 6.4 0.05 0.05 0.05 82 1020.4
20260506223333 12 251 1.6 3.2 0.05 0.05 0.05 82 1020.4
20260506223232 12 267 0.0 1.6 0.05 0.05 0.05 82 1020.4
20260506223132 12 246 1.6 4.8 0.05 0.05 0.05 82 1020.5
20260506223033 12 238 3.2 6.4 0.05 0.05 0.05 82 1020.5
20260506222933 13 226 3.2 6.4 0.05 0.05 0.05 82 1020.5
20260506222833 13 230 1.6 3.2 0.05 0.05 0.05 82 1020.5
20260506222733 13 228 3.2 8.0 0.05 0.05 0.05 82 1020.5
20260506222633 13 227 4.8 6.4 0.05 0.05 0.05 82 1020.5
20260506222533 13 217 1.6 4.8 0.05 0.05 0.05 82 1020.5
20260506222433 13 231 1.6 3.2 0.05 0.05 0.05 83 1020.5
20260506222333 13 258 0.0 1.6 0.03 0.05 0.05 83 1020.5
20260506222233 13 295 0.0 1.6 0.03 0.03 0.05 83 1020.5
20260506221933 12 280 0.0 3.2 0.00 0.03 0.03 83 1020.5
20260506221833 12 303 0.0 1.6 0.00 0.00 0.03 83 1020.5
20260506221533 12 301 0.0 3.2 0.00 0.00 0.00 83 1020.6
20260506221433 12 292 1.6 3.2 0.00 0.00 0.00 83 1020.6
20260506221333 12 0 0.0 0.0 0.00 0.00 0.00 83 1020.6
20260506221233 12 315 0.0 3.2 0.00 0.00 0.00 84 1020.6
20260506221133 12 280 0.0 1.6 0.00 0.00 0.00 83 1020.6
20260506221033 12 324 1.6 4.8 0.00 0.00 0.00 83 1020.6
20260506220933 12 262 1.6 4.8 0.00 0.00 0.00 83 1020.6
20260506220833 12 237 1.6 4.8 0.00 0.00 0.00 83 1020.6
20260506220733 12 244 3.2 6.4 0.00 0.00 0.00 84 1020.6
20260506220433 12 272 3.2 4.8 0.00 0.00 0.00 84 1020.6
20260506220333 12 276 0.0 3.2 0.00 0.00 0.00 84 1020.6
20260506220233 12 223 4.8 6.4 0.00 0.00 0.00 84 1020.5
20260506215933 12 286 0.0 1.6 0.00 0.00 0.00 84 1020.6
20260506215833 12 240 1.6 3.2 0.00 0.00 0.00 85 1020.6
20260506215733 12 252 1.6 3.2 0.00 0.00 0.00 85 1020.6
20260506215433 12 294 1.6 3.2 0.00 0.00 0.00 85 1020.6
20260506215333 12 329 0.0 4.8 0.00 0.00 0.00 86 1020.5
20260506215233 12 0 1.6 4.8 0.00 0.00 0.00 86 1020.5
20260506215133 12 280 1.6 4.8 0.00 0.00 0.00 86 1020.5
20260506214833 12 0 0.0 0.0 0.00 0.00 0.00 85 1020.5
20260506214733 12 246 0.0 1.6 0.00 0.00 0.00 86 1020.5
20260506214433 12 312 0.0 1.6 0.00 0.00 0.00 86 1020.5
20260506213934 12 286 1.6 3.2 0.00 0.00 0.00 86 1020.5
20260506213833 12 271 3.2 4.8 0.00 0.00 0.00 86 1020.6
20260506213734 12 319 1.6 6.4 0.00 0.00 0.00 86 1020.6
20260506213633 12 319 3.2 6.4 0.00 0.00 0.00 86 1020.6
20260506213534 12 324 4.8 6.4 0.00 0.00 0.00 86 1020.6
20260506213433 12 263 0.0 3.2 0.00 0.00 0.00 86 1020.6
20260506213334 12 276 3.2 6.4 0.00 0.00 0.00 86 1020.6
20260506213234 12 331 1.6 6.4 0.00 0.00 0.00 86 1020.6
20260506213134 12 18 1.6 4.8 0.00 0.00 0.00 86 1020.6
20260506212634 12 221 0.0 3.2 0.00 0.00 0.00 87 1020.5
20260506212534 12 239 1.6 4.8 0.00 0.00 0.00 87 1020.5
20260506212434 12 239 0.0 3.2 0.00 0.00 0.00 87 1020.5
20260506212334 12 225 1.6 4.8 0.00 0.00 0.00 86 1020.5
20260506212234 13 228 3.2 4.8 0.00 0.00 0.00 86 1020.5
20260506212134 13 229 1.6 4.8 0.00 0.00 0.00 87 1020.5
20260506211634 12 250 0.0 1.6 0.00 0.00 0.00 87 1020.6
20260506211534 12 263 0.0 1.6 0.00 0.00 0.00 87 1020.5
20260506211234 12 234 1.6 3.2 0.00 0.00 0.00 87 1020.5
20260506211134 12 255 1.6 4.8 0.00 0.00 0.00 87 1020.5
20260506211034 12 255 0.0 3.2 0.00 0.00 0.00 87 1020.5
20260506210934 12 271 1.6 3.2 0.00 0.00 0.00 87 1020.5
20260506210834 12 228 3.2 4.8 0.00 0.00 0.00 87 1020.5
20260506210734 12 256 0.0 1.6 0.00 0.00 0.00 87 1020.5
20260506210634 12 298 1.6 3.2 0.00 0.00 0.00 88 1020.5
20260506210534 12 0 0.0 0.0 0.00 0.00 0.00 88 1020.5
20260506210234 12 236 0.0 1.6 0.00 0.00 0.00 88 1020.5
20260506210134 13 221 1.6 4.8 0.00 0.00 0.00 88 1020.5
20260506210034 13 220 3.2 4.8 0.00 0.00 0.00 87 1020.5
20260506205934 13 217 3.2 4.8 0.00 0.00 0.00 87 1020.5
20260506205834 13 243 1.6 3.2 0.00 0.00 0.00 87 1020.5
20260506205734 13 231 1.6 4.8 0.00 0.00 0.00 87 1020.5
20260506205634 13 282 1.6 3.2 0.00 0.00 0.00 87 1020.5
20260506205334 13 329 0.0 0.0 0.00 0.00 0.00 88 1020.5
20260506205234 13 0 0.0 0.0 0.00 0.00 0.00 88 1020.4
20260506205134 13 0 0.0 0.0 0.00 0.00 0.00 89 1020.4
20260506205034 13 310 0.0 1.6 0.00 0.00 0.00 89 1020.4
20260506204934 13 279 0.0 1.6 0.00 0.00 0.00 88 1020.4
20260506204634 13 222 3.2 4.8 0.00 0.00 0.00 87 1020.4
20260506204334 13 124 0.0 3.2 0.00 0.00 0.00 87 1020.4
20260506204234 13 0 0.0 0.0 0.00 0.00 0.00 87 1020.4
20260506203934 13 328 1.6 3.2 0.00 0.00 0.00 87 1020.4
20260506203834 13 336 0.0 3.2 0.00 0.00 0.00 87 1020.4
20260506203535 13 7 0.0 3.2 0.00 0.00 0.00 87 1020.3
20260506203235 13 311 1.6 3.2 0.00 0.00 0.00 87 1020.4
20260506203135 13 319 1.6 6.4 0.00 0.00 0.00 87 1020.4
20260506203035 13 243 3.2 4.8 0.00 0.00 0.00 87 1020.4
20260506202935 13 228 3.2 4.8 0.00 0.00 0.00 87 1020.4
20260506202835 13 265 0.0 0.0 0.00 0.00 0.00 88 1020.4
20260506202735 13 240 0.0 1.6 0.00 0.00 0.00 87 1020.4
20260506202635 13 269 0.0 1.6 0.00 0.00 0.00 88 1020.4
20260506202535 13 269 0.0 1.6 0.00 0.00 0.00 88 1020.4
20260506202235 13 272 0.0 0.0 0.00 0.00 0.00 87 1020.3
20260506202135 13 272 0.0 1.6 0.00 0.00 0.00 87 1020.4
20260506202035 13 258 0.0 0.0 0.00 0.00 0.00 87 1020.4
20260506201735 13 208 0.0 0.0 0.00 0.00 0.00 88 1020.3
20260506201635 13 0 0.0 0.0 0.00 0.00 0.00 89 1020.3
20260506201535 13 0 0.0 0.0 0.00 0.00 0.00 88 1020.3
20260506201435 13 141 0.0 4.8 0.00 0.00 0.00 87 1020.3
20260506201335 13 129 1.6 4.8 0.00 0.00 0.00 88 1020.3
20260506201235 13 226 0.0 0.0 0.00 0.00 0.00 88 1020.3
20260506201135 13 226 0.0 1.6 0.00 0.00 0.00 88 1020.3
20260506201035 13 0 0.0 0.0 0.00 0.00 0.00 88 1020.3
20260506200735 13 215 1.6 4.8 0.00 0.00 0.00 87 1020.3
20260506200635 13 213 3.2 4.8 0.00 0.00 0.00 86 1020.3
20260506200535 13 223 1.6 4.8 0.00 0.00 0.00 86 1020.3
20260506200335 13 253 0.0 1.6 0.00 0.00 0.00 88 1020.3
20260506200035 13 142 1.6 3.2 0.00 0.00 0.00 87 1020.3
20260506195935 13 109 0.0 3.2 0.00 0.00 0.00 87 1020.3
20260506195835 13 0 0.0 0.0 0.00 0.00 0.00 87 1020.3
20260506195735 13 0 0.0 0.0 0.00 0.00 0.00 88 1020.3
20260506195635 13 0 0.0 0.0 0.00 0.00 0.00 88 1020.3
20260506195335 13 279 0.0 1.6 0.00 0.00 0.00 87 1020.3
20260506195235 13 229 0.0 3.2 0.00 0.00 0.00 87 1020.3
20260506195135 13 211 0.0 0.0 0.00 0.00 0.00 87 1020.3
20260506194835 13 0 0.0 0.0 0.00 0.00 0.00 87 1020.2
20260506194736 13 293 1.6 3.2 0.00 0.00 0.00 87 1020.2
20260506194635 13 4 0.0 1.6 0.00 0.00 0.00 87 1020.2
20260506194535 13 224 3.2 4.8 0.00 0.00 0.00 86 1020.1
20260506194436 13 231 0.0 3.2 0.00 0.00 0.00 88 1020.1
20260506194336 13 281 0.0 1.6 0.00 0.00 0.00 88 1020.1
20260506194236 13 53 0.0 0.0 0.00 0.00 0.00 88 1020.1
20260506194136 13 136 0.0 1.6 0.00 0.00 0.00 88 1020.1
20260506194035 13 140 1.6 3.2 0.00 0.00 0.00 88 1020.1
20260506193936 13 105 0.0 3.2 0.00 0.00 0.00 88 1020.1
20260506193835 13 0 0.0 0.0 0.00 0.00 0.00 88 1020.1
20260506193536 12 173 0.0 3.2 0.00 0.00 0.00 88 1020.1
20260506193436 12 0 0.0 0.0 0.00 0.00 0.00 88 1020.1
20260506193336 12 41 0.0 1.6 0.00 0.00 0.00 88 1020.1
20260506193235 12 0 0.0 0.0 0.00 0.00 0.00 88 1020.1
20260506193136 12 226 1.6 3.2 0.00 0.00 0.00 88 1020.1
20260506193036 12 229 0.0 1.6 0.00 0.00 0.00 88 1020.2
20260506192936 12 176 1.6 4.8 0.00 0.00 0.00 89 1020.2
20260506192835 12 145 0.0 1.6 0.00 0.00 0.00 89 1020.1
20260506192736 12 0 0.0 0.0 0.00 0.00 0.00 88 1020.2
20260506192636 12 0 0.0 0.0 0.00 0.00 0.00 89 1020.2
20260506192536 12 0 0.0 0.0 0.00 0.00 0.00 89 1020.2
20260506192236 12 286 0.0 3.2 0.00 0.00 0.00 88 1020.2
20260506191936 12 225 3.2 8.0 0.00 0.00 0.00 89 1020.2
20260506191836 12 212 0.0 3.2 0.00 0.00 0.00 89 1020.2
20260506191736 12 212 1.6 4.8 0.00 0.00 0.00 88 1020.2
20260506191636 12 240 0.0 3.2 0.00 0.00 0.00 89 1020.2
20260506191336 12 274 0.0 1.6 0.00 0.00 0.00 89 1020.2
20260506191236 12 0 0.0 0.0 0.00 0.00 0.00 89 1020.2
20260506191136 12 0 0.0 0.0 0.00 0.00 0.00 89 1020.2
20260506191036 12 0 0.0 0.0 0.00 0.00 0.00 89 1020.2
20260506190936 12 229 1.6 4.8 0.00 0.00 0.00 89 1020.2
20260506190836 12 239 3.2 6.4 0.00 0.00 0.00 89 1020.2
20260506190736 12 259 1.6 6.4 0.00 0.00 0.00 89 1020.2
20260506190436 12 0 0.0 0.0 0.00 0.00 0.00 90 1020.2
20260506190336 12 256 0.0 0.0 0.00 0.00 0.00 90 1020.2
20260506190236 12 230 1.6 3.2 0.00 0.00 0.00 90 1020.2
20260506190136 12 233 1.6 3.2 0.00 0.00 0.00 90 1020.2
20260506190036 12 224 3.2 3.2 0.00 0.00 0.00 89 1020.2
20260506185937 12 221 3.2 6.4 0.00 0.00 0.00 90 1020.2
20260506185636 12 231 0.0 1.6 0.00 0.00 0.00 90 1020.2
20260506185537 12 0 0.0 0.0 0.00 0.00 0.00 91 1020.2
20260506185436 12 215 1.6 3.2 0.00 0.00 0.00 90 1020.3
20260506185136 12 209 3.2 4.8 0.00 0.00 0.00 90 1020.3
20260506185036 12 209 4.8 8.0 0.00 0.00 0.00 90 1020.3
20260506184936 12 219 3.2 4.8 0.00 0.00 0.00 90 1020.3
20260506184837 12 218 1.6 4.8 0.00 0.00 0.00 90 1020.3
20260506184736 12 218 3.2 4.8 0.00 0.00 0.00 89 1020.3
20260506184436 12 225 3.2 4.8 0.00 0.03 0.00 90 1020.3
20260506184336 12 218 3.2 4.8 0.00 0.03 0.00 90 1020.3
20260506184237 12 251 1.6 3.2 0.00 0.03 0.00 90 1020.2
20260506184137 12 231 1.6 4.8 0.00 0.03 0.00 90 1020.2
20260506184037 12 223 3.2 4.8 0.00 0.03 0.00 90 1020.2
20260506183937 12 237 4.8 8.0 0.00 0.03 0.00 90 1020.2
20260506183837 12 272 3.2 6.4 0.00 0.03 0.00 90 1020.2
20260506183737 12 287 3.2 4.8 0.00 0.03 0.00 90 1020.1
20260506183637 12 315 3.2 4.8 0.00 0.03 0.00 91 1020.1
20260506183336 12 0 0.0 0.0 0.00 0.03 0.00 91 1020.0
20260506183237 12 237 1.6 3.2 0.00 0.03 0.00 91 1020.0
20260506183137 12 242 1.6 4.8 0.00 0.03 0.00 91 1020.0
20260506183037 12 229 3.2 4.8 0.00 0.03 0.00 91 1020.0
20260506182737 12 212 4.8 6.4 0.00 0.03 0.00 91 1019.9
20260506182437 12 216 4.8 8.0 0.00 0.03 0.00 91 1019.9
20260506182337 12 244 3.2 4.8 0.00 0.03 0.00 91 1019.9
20260506182237 12 218 3.2 4.8 0.00 0.03 0.00 90 1019.9
20260506182137 12 233 3.2 6.4 0.00 0.03 0.00 91 1019.9
20260506181637 12 0 0.0 0.0 0.00 0.03 0.00 92 1019.9
20260506181537 12 0 0.0 0.0 0.00 0.03 0.00 93 1019.9
20260506181437 12 247 0.0 1.6 0.00 0.03 0.00 93 1019.9
20260506181337 12 241 0.0 1.6 0.00 0.03 0.00 93 1019.9
20260506181237 12 224 0.0 3.2 0.00 0.03 0.00 93 1019.9
20260506181137 12 273 1.6 3.2 0.00 0.03 0.00 92 1019.9
20260506181037 12 292 0.0 1.6 0.00 0.03 0.00 92 1019.9
20260506180937 12 209 0.0 0.0 0.00 0.03 0.00 92 1019.9
20260506180837 12 213 3.2 4.8 0.00 0.03 0.00 92 1019.9
20260506180737 12 208 3.2 4.8 0.00 0.03 0.00 92 1019.9
20260506180637 12 217 1.6 3.2 0.00 0.03 0.00 92 1019.9
20260506180537 12 231 3.2 4.8 0.00 0.03 0.00 92 1019.9
20260506180237 12 221 3.2 4.8 0.00 0.03 0.00 92 1019.9
20260506180137 12 218 3.2 6.4 0.00 0.03 0.00 92 1019.9
20260506180037 12 216 3.2 6.4 0.00 0.03 0.00 93 1019.9
20260506175937 12 221 1.6 3.2 0.00 0.03 0.00 93 1019.9
20260506175837 12 220 4.8 6.4 0.00 0.03 0.00 92 1019.8
20260506175738 12 209 4.8 6.4 0.00 0.03 0.00 93 1019.8
20260506175637 12 209 0.0 3.2 0.00 0.03 0.00 95 1019.9
20260506175537 11 0 0.0 0.0 0.00 0.03 0.00 95 1019.9
20260506175438 11 0 0.0 0.0 0.00 0.03 0.00 94 1019.9
20260506175337 11 227 0.0 0.0 0.00 0.03 0.00 94 1019.9
20260506175038 11 0 0.0 0.0 0.00 0.03 0.00 94 1020.1
20260506174738 11 0 0.0 0.0 0.00 0.03 0.00 94 1020.1
20260506174638 11 219 0.0 3.2 0.00 0.03 0.00 94 1020.1
20260506174537 11 214 3.2 4.8 0.00 0.03 0.00 94 1020.1
20260506174438 11 214 1.6 4.8 0.00 0.03 0.00 94 1020.1
20260506174337 11 221 1.6 3.2 0.00 0.03 0.00 94 1020.1
20260506174238 11 217 1.6 3.2 0.00 0.03 0.00 95 1020.1
20260506174139 11 223 0.0 1.6 0.00 0.03 0.00 95 1020.1
20260506174038 11 228 1.6 3.2 0.00 0.03 0.00 95 1020.1
20260506173738 11 230 3.2 4.8 0.00 0.03 0.00 95 1020.0
20260506173638 11 226 1.6 3.2 0.00 0.03 0.00 95 1020.1
20260506173338 11 217 1.6 3.2 0.00 0.03 0.00 95 1020.0
20260506173238 11 213 3.2 4.8 0.00 0.03 0.00 95 1020.0
20260506173138 11 206 4.8 6.4 0.00 0.03 0.00 95 1020.0
20260506173038 11 212 3.2 3.2 0.00 0.03 0.00 95 1020.1
20260506172938 11 214 3.2 4.8 0.00 0.03 0.00 95 1020.1
20260506172838 11 220 3.2 4.8 0.00 0.03 0.00 95 1020.1
20260506172738 11 248 1.6 4.8 0.00 0.03 0.00 95 1020.1
20260506172638 11 222 4.8 8.0 0.00 0.03 0.00 95 1020.0
20260506172338 11 330 1.6 4.8 0.00 0.03 0.00 95 1020.0
20260506172238 11 257 1.6 4.8 0.00 0.03 0.00 95 1020.0
20260506172138 11 229 3.2 4.8 0.00 0.03 0.00 95 1020.0
20260506172038 11 280 1.6 4.8 0.00 0.03 0.00 95 1020.0
20260506171938 11 261 3.2 6.4 0.00 0.03 0.00 95 1020.0
20260506171838 11 279 3.2 4.8 0.00 0.03 0.00 95 1019.9
20260506171738 11 264 1.6 6.4 0.00 0.03 0.00 96 1019.9
20260506171638 11 272 1.6 3.2 0.00 0.03 0.00 96 1019.9
20260506171538 11 247 1.6 6.4 0.00 0.03 0.00 96 1019.9
20260506171438 11 255 1.6 3.2 0.00 0.03 0.00 96 1019.9
20260506171338 11 234 1.6 3.2 0.00 0.03 0.00 96 1019.9
20260506171238 11 214 3.2 4.8 0.00 0.03 0.00 96 1019.9
20260506171138 11 239 1.6 4.8 0.00 0.03 0.00 96 1019.9
20260506171038 11 249 0.0 1.6 0.00 0.03 0.00 96 1019.9
20260506170938 11 241 1.6 3.2 0.00 0.03 0.00 96 1019.9
20260506170838 11 220 1.6 3.2 0.00 0.03 0.00 96 1019.9
20260506170738 11 240 1.6 3.2 0.00 0.03 0.00 96 1019.9
20260506170638 11 225 1.6 3.2 0.00 0.03 0.00 96 1019.9
20260506170538 11 294 0.0 3.2 0.00 0.03 0.00 96 1019.9
20260506170438 11 305 1.6 3.2 0.00 0.03 0.00 96 1019.9
20260506170338 11 247 1.6 3.2 0.00 0.03 0.00 96 1019.9
20260506170238 11 232 1.6 3.2 0.00 0.03 0.00 96 1019.9
20260506170138 11 231 1.6 3.2 0.00 0.03 0.00 96 1019.9
20260506165838 11 265 1.6 4.8 0.00 0.03 0.00 96 1019.8
20260506165738 11 260 1.6 3.2 0.00 0.03 0.00 96 1019.8
20260506165638 11 272 3.2 6.4 0.00 0.03 0.00 96 1019.8
20260506165538 11 253 3.2 4.8 0.00 0.03 0.00 96 1019.8
20260506165438 11 219 3.2 4.8 0.00 0.03 0.00 96 1019.7
20260506165338 11 242 1.6 4.8 0.00 0.03 0.00 96 1019.7
20260506164839 11 220 3.2 4.8 0.00 0.03 0.00 97 1019.6
20260506164538 11 0 0.0 0.0 0.00 0.03 0.00 98 1019.5
20260506164438 11 0 0.0 0.0 0.00 0.03 0.00 98 1019.5
20260506164339 11 233 0.0 1.6 0.00 0.03 0.00 98 1019.4
20260506164238 11 217 0.0 0.0 0.00 0.03 0.00 97 1019.4
20260506164139 11 210 0.0 3.2 0.00 0.03 0.00 98 1019.4
20260506164038 11 260 0.0 1.6 0.00 0.03 0.00 98 1019.4
20260506163939 11 279 0.0 0.0 0.00 0.03 0.00 98 1019.4
20260506163839 11 232 1.6 4.8 0.00 0.03 0.00 98 1019.4
20260506163539 11 219 1.6 4.8 0.00 0.03 0.00 98 1019.4
20260506163439 11 227 1.6 3.2 0.00 0.03 0.00 98 1019.4
20260506163339 11 219 3.2 4.8 0.00 0.03 0.00 98 1019.4
20260506163239 11 223 4.8 4.8 0.00 0.03 0.00 98 1019.5
20260506162739 11 218 1.6 4.8 0.00 0.03 0.00 98 1019.4
20260506162439 11 209 3.2 3.2 0.00 0.03 0.00 98 1019.3
20260506162339 11 213 3.2 4.8 0.00 0.03 0.00 98 1019.3
20260506162239 11 0 0.0 0.0 0.00 0.03 0.00 98 1019.3
20260506162139 11 0 0.0 0.0 0.00 0.03 0.00 98 1019.3
20260506162039 11 0 0.0 0.0 0.00 0.03 0.00 98 1019.3
20260506161739 11 245 0.0 1.6 0.00 0.03 0.00 98 1019.4
20260506161639 11 205 3.2 4.8 0.00 0.03 0.00 98 1019.4
20260506161539 11 212 3.2 4.8 0.00 0.03 0.00 98 1019.5
20260506161039 11 217 3.2 4.8 0.00 0.03 0.00 98 1019.6
20260506160739 11 237 3.2 4.8 0.00 0.03 0.00 98 1019.6
20260506160239 11 276 1.6 3.2 0.00 0.03 0.00 98 1019.7
20260506155940 11 208 3.2 4.8 0.00 0.03 0.00 98 1019.6
20260506155840 11 236 1.6 4.8 0.00 0.03 0.00 98 1019.6
20260506155739 11 231 3.2 3.2 0.00 0.03 0.00 98 1019.6
20260506155641 11 208 1.6 3.2 0.00 0.03 0.00 98 1019.6
20260506155540 11 213 1.6 3.2 0.00 0.03 0.00 98 1019.6
20260506155440 11 234 0.0 1.6 0.00 0.03 0.00 98 1019.6
20260506155340 11 216 1.6 3.2 0.00 0.03 0.00 97 1019.6
20260506155040 11 209 3.2 4.8 0.00 0.03 0.00 97 1019.6
20260506154940 11 263 1.6 4.8 0.00 0.03 0.00 97 1019.5
20260506154839 11 0 0.0 3.2 0.00 0.03 0.00 97 1019.5
20260506154739 11 211 1.6 4.8 0.00 0.03 0.00 97 1019.5
20260506154640 11 235 3.2 4.8 0.00 0.03 0.00 97 1019.5
20260506154339 11 0 0.0 1.6 0.00 0.03 0.00 97 1019.5
20260506154240 11 0 0.0 0.0 0.00 0.03 0.00 97 1019.5
20260506154140 11 0 0.0 1.6 0.00 0.03 0.00 97 1019.5
20260506154040 11 0 0.0 0.0 0.00 0.03 0.00 98 1019.5
20260506153940 11 289 0.0 1.6 0.00 0.03 0.00 98 1019.5
20260506153640 11 0 0.0 0.0 0.00 0.03 0.00 98 1019.4
20260506153540 11 215 1.6 3.2 0.00 0.03 0.00 98 1019.4
20260506153440 11 211 0.0 3.2 0.00 0.03 0.00 98 1019.4
20260506153340 11 253 1.6 3.2 0.00 0.03 0.00 98 1019.4
20260506153240 11 330 0.0 3.2 0.00 0.03 0.00 98 1019.3
20260506153140 11 0 0.0 0.0 0.00 0.03 0.00 98 1019.3
20260506153040 11 0 0.0 0.0 0.00 0.03 0.00 98 1019.3
20260506152940 11 0 0.0 0.0 0.00 0.03 0.00 98 1019.3
20260506152840 11 0 0.0 0.0 0.00 0.03 0.00 98 1019.3
20260506152740 11 0 0.0 0.0 0.00 0.03 0.00 98 1019.3
20260506152640 11 72 0.0 1.6 0.00 0.03 0.00 98 1019.3
20260506152540 11 0 0.0 0.0 0.00 0.03 0.00 98 1019.3
20260506152440 11 0 0.0 0.0 0.00 0.03 0.00 98 1019.4
20260506152340 11 0 0.0 0.0 0.00 0.03 0.00 98 1019.4
20260506152240 11 0 0.0 1.6 0.00 0.03 0.00 98 1019.4
20260506152140 11 239 0.0 1.6 0.00 0.03 0.00 98 1019.4
20260506151840 11 0 0.0 0.0 0.00 0.03 0.00 98 1019.4
20260506151740 11 0 0.0 0.0 0.00 0.03 0.00 98 1019.4
20260506151640 11 0 0.0 0.0 0.00 0.03 0.00 98 1019.5
20260506151340 11 197 1.6 4.8 0.00 0.03 0.00 98 1019.5
20260506151240 11 227 0.0 1.6 0.00 0.03 0.00 98 1019.5
20260506151140 11 304 0.0 1.6 0.00 0.03 0.00 98 1019.5
20260506151040 11 270 0.0 1.6 0.00 0.03 0.00 98 1019.5
20260506150940 11 0 0.0 0.0 0.00 0.03 0.00 98 1019.5
20260506150840 11 0 0.0 0.0 0.00 0.03 0.00 98 1019.5
20260506150740 11 0 0.0 0.0 0.00 0.03 0.00 98 1019.5
20260506150440 11 194 3.2 4.8 0.00 0.03 0.00 98 1019.5
20260506145940 11 214 3.2 4.8 0.00 0.03 0.00 98 1019.6
20260506145840 11 229 1.6 4.8 0.00 0.03 0.00 98 1019.6
20260506145540 11 201 3.2 4.8 0.00 0.03 0.00 98 1019.6
20260506145440 11 210 3.2 4.8 0.00 0.03 0.00 98 1019.5
20260506145340 11 209 3.2 4.8 0.00 0.03 0.00 98 1019.5
20260506145240 11 205 1.6 3.2 0.00 0.03 0.00 98 1019.5
20260506145141 11 204 4.8 6.4 0.00 0.03 0.00 98 1019.4
20260506145041 11 203 1.6 3.2 0.00 0.03 0.00 98 1019.4
20260506144940 11 241 0.0 1.6 0.00 0.03 0.00 98 1019.3
20260506144840 11 0 0.0 0.0 0.00 0.03 0.00 98 1019.3
20260506144740 11 0 0.0 0.0 0.00 0.03 0.00 98 1019.3
20260506144641 11 0 0.0 0.0 0.00 0.03 0.00 98 1019.3
20260506144341 11 217 0.0 1.6 0.00 0.03 0.00 98 1019.3
20260506144041 11 234 1.6 3.2 0.00 0.03 0.00 98 1019.2
20260506143941 11 0 0.0 0.0 0.00 0.03 0.00 98 1019.2
20260506143841 11 0 0.0 0.0 0.00 0.03 0.00 98 1019.1
20260506143741 11 0 0.0 0.0 0.00 0.03 0.00 98 1019.1
20260506143541 11 0 0.0 0.0 0.00 0.03 0.00 98 1019.0
20260506143441 11 0 0.0 0.0 0.00 0.03 0.00 98 1019.0
20260506143341 11 0 0.0 0.0 0.00 0.03 0.00 98 1019.0
20260506142941 11 123 0.0 1.6 0.00 0.03 0.00 98 1019.1
20260506142841 11 0 0.0 0.0 0.00 0.03 0.00 98 1019.2
20260506142741 11 298 0.0 0.0 0.00 0.03 0.00 98 1019.2
20260506142641 11 298 0.0 1.6 0.00 0.03 0.00 98 1019.2
20260506142541 11 0 0.0 0.0 0.00 0.03 0.00 98 1019.2
20260506142441 11 0 0.0 0.0 0.00 0.03 0.00 98 1019.2
20260506142341 11 0 0.0 0.0 0.00 0.03 0.00 98 1019.2
20260506142241 11 211 0.0 1.6 0.00 0.03 0.00 98 1019.2
20260506142141 11 0 0.0 0.0 0.00 0.03 0.00 98 1019.2
20260506142041 11 0 0.0 0.0 0.00 0.03 0.00 98 1019.2
20260506141741 11 0 0.0 0.0 0.00 0.03 0.00 98 1019.2
20260506141641 11 0 0.0 0.0 0.00 0.03 0.00 98 1019.2
20260506141541 11 0 0.0 0.0 0.00 0.03 0.00 98 1019.2
20260506141441 11 0 0.0 1.6 0.00 0.03 0.00 98 1019.2
20260506141141 11 197 1.6 3.2 0.00 0.03 0.00 98 1019.4
20260506140841 11 221 1.6 3.2 0.00 0.03 0.00 98 1019.4
20260506140741 11 216 3.2 4.8 0.00 0.03 0.00 98 1019.4
20260506140641 11 215 1.6 3.2 0.00 0.03 0.00 98 1019.3
20260506140541 11 286 1.6 3.2 0.00 0.03 0.00 98 1019.3
20260506140441 11 293 1.6 3.2 0.00 0.03 0.00 98 1019.3
20260506140341 11 246 0.0 3.2 0.00 0.03 0.00 98 1019.3
20260506140241 11 221 1.6 3.2 0.00 0.03 0.00 98 1019.3
20260506135741 11 272 0.0 3.2 0.00 0.03 0.00 98 1019.3
20260506135641 11 227 0.0 3.2 0.00 0.03 0.00 98 1019.3
20260506135541 11 218 1.6 3.2 0.00 0.03 0.00 98 1019.4
20260506135441 11 228 1.6 3.2 0.00 0.03 0.00 98 1019.4
20260506135341 11 0 0.0 1.6 0.00 0.03 0.00 98 1019.4
20260506135241 11 333 1.6 3.2 0.00 0.03 0.00 98 1019.4
20260506135141 11 0 1.6 3.2 0.00 0.03 0.00 98 1019.4
20260506135041 11 216 1.6 3.2 0.00 0.03 0.00 98 1019.3
20260506134941 11 228 0.0 3.2 0.00 0.03 0.00 98 1019.3
20260506134841 11 221 1.6 4.8 0.00 0.03 0.00 98 1019.3
20260506134742 11 214 3.2 4.8 0.00 0.03 0.00 98 1019.2
20260506134642 11 208 0.0 1.6 0.00 0.03 0.00 97 1019.2
20260506134342 11 221 0.0 3.2 0.00 0.03 0.00 98 1019.1
20260506134242 11 230 3.2 6.4 0.00 0.03 0.00 98 1019.1
20260506134142 11 232 1.6 3.2 0.00 0.03 0.00 98 1019.1
20260506134042 11 215 1.6 3.2 0.00 0.03 0.00 97 1019.1
20260506133942 11 223 1.6 3.2 0.00 0.03 0.00 97 1019.1
20260506133842 11 205 3.2 4.8 0.00 0.03 0.00 97 1019.1
20260506133742 11 218 0.0 1.6 0.00 0.03 0.00 97 1019.1
20260506133642 11 258 0.0 0.0 0.00 0.03 0.00 97 1019.1
20260506133542 11 257 0.0 3.2 0.00 0.03 0.00 97 1019.1
20260506133342 11 203 1.6 3.2 0.00 0.03 0.00 97 1019.2
20260506133242 11 0 1.6 4.8 0.00 0.03 0.00 97 1019.1
20260506132942 11 0 0.0 0.0 0.00 0.03 0.00 97 1018.9
20260506132642 11 0 0.0 0.0 0.00 0.03 0.00 97 1018.7
20260506132342 11 0 0.0 0.0 0.00 0.03 0.00 97 1018.8
20260506132242 11 0 0.0 0.0 0.00 0.03 0.00 97 1018.8
20260506132142 11 0 0.0 0.0 0.00 0.03 0.00 97 1018.8
20260506132042 11 226 0.0 3.2 0.00 0.03 0.00 97 1018.8
20260506131942 11 202 1.6 3.2 0.00 0.03 0.00 97 1018.9
20260506131642 11 0 0.0 0.0 0.00 0.03 0.00 97 1018.8
20260506131542 11 0 0.0 0.0 0.00 0.03 0.00 97 1018.8
20260506131442 11 0 0.0 0.0 0.00 0.03 0.00 97 1018.8
20260506131342 11 0 0.0 0.0 0.00 0.03 0.00 97 1018.8
20260506131142 11 0 0.0 0.0 0.00 0.03 0.00 97 1018.8
20260506131042 11 0 0.0 0.0 0.00 0.03 0.00 97 1018.8
20260506130943 11 285 0.0 0.0 0.00 0.03 0.00 97 1018.7
20260506130642 11 220 0.0 3.2 0.00 0.03 0.00 97 1018.8
20260506130542 11 211 0.0 3.2 0.00 0.03 0.00 97 1018.8
20260506130442 11 220 1.6 4.8 0.00 0.03 0.00 97 1018.8
20260506130342 11 0 0.0 0.0 0.00 0.03 0.00 97 1018.8
20260506130243 11 0 0.0 0.0 0.00 0.03 0.00 97 1018.8
20260506130143 11 0 0.0 0.0 0.00 0.03 0.00 97 1018.8
20260506130042 11 0 0.0 0.0 0.00 0.03 0.00 97 1018.7
20260506125942 11 234 0.0 3.2 0.00 0.03 0.00 97 1018.7
20260506125843 11 218 0.0 3.2 0.00 0.03 0.00 97 1018.7
20260506125542 11 238 0.0 1.6 0.00 0.03 0.00 97 1018.7
20260506125242 11 0 0.0 0.0 0.00 0.03 0.00 97 1018.6
20260506125143 11 0 0.0 1.6 0.00 0.03 0.00 97 1018.6
20260506125042 11 0 0.0 0.0 0.00 0.03 0.00 97 1018.6
20260506124942 11 0 0.0 0.0 0.00 0.03 0.00 97 1018.7
20260506124843 11 0 0.0 0.0 0.00 0.03 0.00 97 1018.6
20260506124543 11 0 0.0 0.0 0.00 0.03 0.00 97 1018.6
20260506124443 11 0 0.0 0.0 0.00 0.03 0.00 97 1018.6
20260506124343 11 215 1.6 3.2 0.00 0.03 0.00 97 1018.6
20260506124043 11 0 0.0 0.0 0.00 0.03 0.00 97 1018.6
20260506123943 11 0 0.0 0.0 0.00 0.03 0.00 97 1018.6
20260506123843 11 0 0.0 0.0 0.00 0.03 0.00 97 1018.5
20260506123543 11 0 0.0 0.0 0.00 0.03 0.00 96 1018.4
20260506123243 11 0 0.0 0.0 0.00 0.03 0.00 96 1018.5
20260506123143 11 0 0.0 0.0 0.00 0.03 0.00 96 1018.5
20260506122843 11 0 0.0 0.0 0.00 0.03 0.00 96 1018.5
20260506122743 11 0 0.0 0.0 0.00 0.03 0.00 96 1018.5
20260506122643 11 0 0.0 0.0 0.00 0.03 0.00 96 1018.5
20260506122543 11 226 0.0 1.6 0.00 0.03 0.00 96 1018.5
20260506122443 11 215 1.6 3.2 0.00 0.03 0.00 95 1018.5
20260506122343 11 209 1.6 3.2 0.00 0.03 0.00 95 1018.5
20260506122243 11 216 0.0 3.2 0.00 0.03 0.00 95 1018.5
20260506122143 11 212 0.0 3.2 0.00 0.03 0.00 95 1018.5
20260506122043 11 0 0.0 0.0 0.00 0.03 0.00 95 1018.5
20260506121943 11 0 0.0 0.0 0.00 0.03 0.00 95 1018.5
20260506121843 11 0 0.0 0.0 0.00 0.03 0.00 95 1018.5
20260506121743 11 0 0.0 0.0 0.00 0.03 0.00 95 1018.5
20260506121643 11 0 0.0 0.0 0.00 0.03 0.00 95 1018.5
20260506121343 11 276 0.0 0.0 0.00 0.03 0.00 95 1018.4
20260506121243 12 317 0.0 3.2 0.00 0.03 0.00 95 1018.4
20260506121043 12 0 0.0 0.0 0.00 0.03 0.00 95 1018.4
20260506120943 12 0 0.0 0.0 0.00 0.03 0.00 95 1018.4
20260506120643 12 0 0.0 0.0 0.00 0.03 0.00 94 1018.3
20260506120343 12 0 0.0 0.0 0.00 0.03 0.00 94 1018.3
20260506120243 12 345 0.0 1.6 0.00 0.03 0.00 94 1018.3
20260506120144 12 0 0.0 0.0 0.00 0.03 0.00 94 1018.3
20260506120043 12 0 0.0 0.0 0.00 0.03 0.00 94 1018.3
20260506115944 12 0 0.0 0.0 0.00 0.03 0.00 94 1018.3
20260506115843 12 0 0.0 0.0 0.00 0.03 0.00 94 1018.3
20260506115744 12 0 0.0 0.0 0.00 0.03 0.00 94 1018.3
20260506115643 12 0 0.0 0.0 0.00 0.03 0.00 94 1018.3
20260506115543 12 0 0.0 0.0 0.00 0.03 0.00 94 1018.3
20260506115244 12 0 0.0 0.0 0.00 0.03 0.00 93 1018.3
20260506115143 12 0 0.0 0.0 0.00 0.03 0.00 93 1018.3
20260506115044 12 0 0.0 0.0 0.00 0.03 0.00 93 1018.3
20260506114943 12 0 0.0 0.0 0.00 0.03 0.00 93 1018.3
20260506114844 12 0 0.0 0.0 0.00 0.03 0.00 93 1018.3
20260506114744 12 0 0.0 0.0 0.00 0.03 0.00 93 1018.3
20260506114644 12 0 0.0 0.0 0.00 0.03 0.00 93 1018.3
20260506114544 12 0 0.0 0.0 0.00 0.03 0.00 93 1018.3
20260506114444 12 0 0.0 0.0 0.00 0.03 0.00 93 1018.3
20260506114343 12 0 0.0 0.0 0.00 0.03 0.00 92 1018.3
20260506114244 12 0 0.0 0.0 0.00 0.03 0.00 92 1018.3
20260506114144 12 0 0.0 0.0 0.00 0.03 0.00 92 1018.3
20260506114044 12 313 0.0 1.6 0.00 0.03 0.00 92 1018.3
20260506113944 12 0 0.0 0.0 0.00 0.03 0.00 92 1018.3
20260506113844 12 231 1.6 3.2 0.00 0.03 0.00 92 1018.4
20260506113744 12 0 0.0 0.0 0.00 0.03 0.00 92 1018.4
20260506113644 12 0 0.0 0.0 0.00 0.03 0.00 92 1018.4
20260506113544 12 0 0.0 0.0 0.00 0.03 0.00 92 1018.4
20260506113444 12 0 0.0 0.0 0.00 0.03 0.00 92 1018.4
20260506113344 12 209 0.0 3.2 0.00 0.03 0.00 92 1018.4
20260506113044 12 0 0.0 0.0 0.00 0.03 0.00 91 1018.3
20260506112744 12 0 0.0 0.0 0.00 0.03 0.00 91 1018.3
20260506112644 12 0 0.0 0.0 0.00 0.03 0.00 91 1018.3
20260506112544 12 0 0.0 0.0 0.00 0.03 0.00 91 1018.3
20260506112244 12 0 0.0 0.0 0.00 0.03 0.00 91 1018.3
20260506112144 12 0 0.0 1.6 0.00 0.03 0.00 91 1018.3
20260506112044 12 0 0.0 0.0 0.00 0.03 0.00 91 1018.3
20260506111944 12 0 0.0 0.0 0.00 0.03 0.00 91 1018.3
20260506111844 12 0 0.0 0.0 0.00 0.03 0.00 91 1018.3
20260506111744 12 0 0.0 0.0 0.00 0.03 0.00 91 1018.3
20260506111644 12 0 0.0 0.0 0.00 0.03 0.00 91 1018.3
20260506111544 12 0 0.0 0.0 0.00 0.03 0.00 91 1018.2
20260506111444 12 0 0.0 0.0 0.00 0.03 0.00 91 1018.2
20260506111344 12 0 0.0 0.0 0.00 0.03 0.00 91 1018.2
20260506111244 12 0 0.0 0.0 0.00 0.03 0.00 91 1018.2
20260506111144 12 245 0.0 1.6 0.00 0.03 0.00 91 1018.2
20260506111044 12 0 0.0 0.0 0.00 0.03 0.00 91 1018.2
20260506110944 12 16 0.0 3.2 0.00 0.03 0.00 90 1018.2
20260506110845 12 0 0.0 0.0 0.00 0.03 0.00 90 1018.2
20260506110744 12 0 0.0 0.0 0.00 0.03 0.00 91 1018.2
20260506110444 12 0 0.0 0.0 0.00 0.03 0.00 90 1018.2
20260506110344 12 0 0.0 0.0 0.00 0.03 0.00 90 1018.2
20260506110045 12 226 0.0 1.6 0.00 0.03 0.00 90 1018.2
20260506105945 12 0 0.0 0.0 0.00 0.03 0.00 90 1018.2
20260506105845 12 0 0.0 0.0 0.00 0.03 0.00 90 1018.1
20260506105745 12 0 0.0 0.0 0.00 0.03 0.00 90 1018.1
20260506105645 12 0 0.0 0.0 0.00 0.03 0.00 90 1018.1
20260506105544 12 0 0.0 0.0 0.00 0.03 0.00 90 1018.1
20260506105445 12 0 0.0 0.0 0.00 0.03 0.00 90 1018.1
20260506105344 12 0 0.0 0.0 0.00 0.03 0.00 90 1018.1
20260506105245 12 0 0.0 0.0 0.00 0.03 0.00 90 1018.1
20260506105144 12 0 0.0 0.0 0.00 0.03 0.00 90 1018.1
20260506105045 12 0 0.0 0.0 0.00 0.03 0.00 90 1018.0
20260506104945 12 248 0.0 1.6 0.00 0.03 0.00 90 1018.0
20260506104845 12 230 1.6 3.2 0.00 0.03 0.00 90 1018.0
20260506104545 12 252 0.0 0.0 0.00 0.03 0.00 90 1018.0
20260506104445 12 0 0.0 0.0 0.00 0.03 0.00 90 1018.0
20260506104345 12 206 0.0 1.6 0.00 0.03 0.00 90 1018.0
20260506104245 12 232 1.6 4.8 0.00 0.03 0.00 89 1018.0
20260506104145 12 257 0.0 1.6 0.00 0.03 0.00 89 1018.0
20260506104045 12 223 0.0 3.2 0.00 0.03 0.00 90 1018.0
20260506103945 12 0 0.0 0.0 0.00 0.03 0.00 90 1018.0
20260506103445 12 0 0.0 1.6 0.00 0.03 0.00 89 1017.9
20260506103345 12 229 1.6 3.2 0.00 0.03 0.00 89 1017.9
20260506103245 12 203 1.6 3.2 0.00 0.03 0.00 90 1017.9
20260506103145 12 244 0.0 1.6 0.00 0.03 0.00 90 1017.9
20260506103045 12 243 0.0 1.6 0.00 0.03 0.00 90 1017.8
20260506102945 12 305 0.0 3.2 0.00 0.03 0.00 90 1017.8
20260506102845 12 296 1.6 3.2 0.00 0.03 0.00 90 1017.8
20260506102745 12 231 1.6 3.2 0.00 0.03 0.00 90 1017.8
20260506102645 12 233 1.6 3.2 0.00 0.03 0.00 90 1017.8
20260506102545 12 212 3.2 3.2 0.00 0.03 0.00 90 1017.8
20260506102445 12 210 3.2 3.2 0.00 0.03 0.00 90 1017.8
20260506102345 12 214 3.2 3.2 0.00 0.03 0.00 90 1017.8
20260506102245 12 211 1.6 3.2 0.00 0.03 0.00 90 1017.8
20260506102145 12 232 0.0 1.6 0.00 0.03 0.00 90 1017.8
20260506102045 12 211 1.6 4.8 0.00 0.03 0.00 90 1017.8
20260506101945 12 204 3.2 6.4 0.00 0.03 0.00 90 1017.8
20260506101845 12 208 1.6 3.2 0.00 0.03 0.00 90 1017.7
20260506101745 12 253 1.6 3.2 0.00 0.03 0.00 90 1017.7
20260506101645 12 284 0.0 1.6 0.00 0.03 0.00 90 1017.7
20260506101545 12 274 0.0 4.8 0.00 0.03 0.00 90 1017.7
20260506101445 12 297 3.2 4.8 0.00 0.03 0.00 90 1017.7
20260506101145 12 0 0.0 3.2 0.00 0.03 0.00 90 1017.7
20260506101045 12 300 1.6 3.2 0.00 0.03 0.00 90 1017.6
20260506100946 12 305 0.0 3.2 0.00 0.03 0.00 90 1017.6
20260506100845 12 274 0.0 3.2 0.00 0.03 0.00 90 1017.6
20260506100745 12 245 3.2 4.8 0.00 0.03 0.00 90 1017.6
20260506100645 12 249 1.6 3.2 0.00 0.03 0.00 90 1017.6
20260506100546 12 229 3.2 4.8 0.00 0.03 0.00 89 1017.6
20260506100445 12 303 1.6 3.2 0.00 0.03 0.00 89 1017.6
20260506100345 12 263 1.6 3.2 0.00 0.03 0.00 89 1017.6
20260506100245 12 229 1.6 3.2 0.00 0.03 0.00 89 1017.5
20260506100145 12 295 1.6 3.2 0.00 0.03 0.00 89 1017.5
20260506100046 12 222 3.2 4.8 0.00 0.03 0.00 89 1017.5
20260506095946 12 206 3.2 6.4 0.00 0.03 0.00 89 1017.5
20260506095845 12 227 3.2 3.2 0.00 0.03 0.00 89 1017.5
20260506095745 12 207 1.6 3.2 0.00 0.03 0.00 89 1017.5
20260506095646 12 198 3.2 4.8 0.00 0.03 0.00 89 1017.5
20260506095546 12 209 4.8 6.4 0.00 0.03 0.00 89 1017.5
20260506095445 12 202 3.2 4.8 0.00 0.03 0.00 89 1017.5
20260506095346 12 206 4.8 4.8 0.00 0.03 0.00 89 1017.5
20260506095045 12 234 1.6 4.8 0.00 0.03 0.00 89 1017.5
20260506094545 12 214 1.6 3.2 0.00 0.03 0.00 89 1017.4
20260506094446 12 222 3.2 4.8 0.00 0.03 0.00 89 1017.4
20260506094346 12 217 4.8 6.4 0.00 0.03 0.00 89 1017.4
20260506094246 12 224 3.2 4.8 0.00 0.03 0.00 89 1017.4